This is the latest recevied weather packets stored in our database for station/object EB1TK-13. If no packets are shown the sender has not sent any weather packets the latest 10 day(s).
| Time | Temp. | Humidity | Pressure | Rain* | Wind** | Luminosity | Snow |
|---|---|---|---|---|---|---|---|
| 1778029337 | 11.67° C | 90% | 1014.6 hPa | 0 mm | - | - | - |
| 1778028737 | 11.67° C | 90% | 1014.8 hPa | 0 mm | - | - | - |
| 1778028135 | 11.11° C | 90% | 1014.9 hPa | 0.25 mm | - | - | - |
| 1778027535 | 11.11° C | 91% | 1015 hPa | 0.25 mm | - | - | - |
| 1778026936 | 11.67° C | 90% | 1015.1 hPa | 0.25 mm | - | - | - |
| 1778026336 | 11.67° C | 89% | 1015 hPa | 0.25 mm | - | - | - |
| 1778025737 | 12.22° C | 89% | 1015.1 hPa | 0.25 mm | - | - | - |
| 1778025137 | 11.67° C | 90% | 1015.3 hPa | 0.25 mm | - | - | - |
| 1778024537 | 11.67° C | 90% | 1015.2 hPa | 0 mm | - | - | - |
| 1778023935 | 11.67° C | 90% | 1015.3 hPa | 0 mm | - | - | - |
| 1778023340 | 11.67° C | 90% | 1015.3 hPa | 0 mm | - | - | - |
| 1778022736 | 11.67° C | 90% | 1015.2 hPa | 0 mm | - | - | - |
| 1778022136 | 12.22° C | 91% | 1015.2 hPa | 0 mm | - | - | - |
| 1778021536 | 12.22° C | 91% | 1015.4 hPa | 0 mm | - | - | - |
| 1778020937 | 12.22° C | 91% | 1015.4 hPa | 0 mm | - | - | - |
| 1778020337 | 12.22° C | 90% | 1015.4 hPa | 0 mm | - | - | - |
| 1778019735 | 12.78° C | 91% | 1015.5 hPa | 0 mm | - | - | - |
| 1778019136 | 12.78° C | 90% | 1015.4 hPa | 0 mm | - | - | - |
| 1778018539 | 12.22° C | 90% | 1015.4 hPa | 0 mm | - | - | - |
| 1778017936 | 12.22° C | 90% | 1015.4 hPa | 0 mm | - | - | - |
| 1778017337 | 12.22° C | 90% | 1015.4 hPa | 0 mm | - | - | - |
| 1778016737 | 12.78° C | 90% | 1015.4 hPa | 0 mm | - | - | - |
| 1778016135 | 12.78° C | 90% | 1015.5 hPa | 0 mm | - | - | - |
| 1778015535 | 12.78° C | 90% | 1015.5 hPa | 0 mm | - | - | - |
| 1778014935 | 12.78° C | 89% | 1015.5 hPa | 0 mm | - | - | - |
* Rain latest hour (hover to see other rain measurements)
** Current wind speed in m/s (hover to see current wind gust speed)